Location: Newark
(43.0000°N, 1.6781°W)
Time: 00:18:07
(UTC+00:00)

Vanguard 1 Rocket - Pass Details

Date: 25 April 2021
Orbit: 652 x 4224 km, 34.3° (Epoch: 06 May)

Event Time Altitude Azimuth Distance (km) Brightness Sun altitude
Rises 16:19:25 0° 262° (W) 3,179 11.5 28.3°
Reaches altitude 10° 16:22:39 10° 241° (WSW) 2,088 10.6 27.7°
Maximum altitude 16:25:31 17° 200° (SSW) 1,651 9.3 27.2°
Drops below altitude 10° 16:28:25 10° 159° (SSE) 2,113 9.2 26.6°
Sets 16:31:43 0° 138° (SE) 3,236 9.9 26.0°
